PSCTB SNYU-SWJW

Flight info

Callsign PSCTB
Flight time N/A
Altitude 8500
Route 1931S05020W DCT 1909S05046W 1843S05115W 1813S05128W
Aircraft C208/L-SDFGR/C

Departure

Time 2026-04-25 01:12
Airport Iturama Airport (SNYU)

Arrival

Time N/A
Airport Jataí Airport (SWJW)
Time Latitude Longitude Altitude Speed Heading
2026-04-25 01:04 -19.72396 -50.21795 1589 ft 0 kts 176°
2026-04-25 01:09 -19.72408 -50.21793 1589 ft 4 kts 164°
2026-04-25 01:10 -19.72387 -50.21778 1589 ft 12 kts 300°
2026-04-25 01:10 -19.72373 -50.21859 1588 ft 11 kts 268°
2026-04-25 01:10 -19.72337 -50.21898 1588 ft 2 kts 348°
2026-04-25 01:10 -19.72319 -50.21903 1588 ft 11 kts 343°
2026-04-25 01:11 -19.72088 -50.21960 1586 ft 58 kts 347°
2026-04-25 01:11 -19.71616 -50.22077 1585 ft 91 kts 348°
2026-04-25 01:11 -19.70955 -50.22234 1681 ft 104 kts 335°
2026-04-25 01:11 -19.70347 -50.22672 1851 ft 109 kts 326°
2026-04-25 01:12 -19.69679 -50.23121 2041 ft 117 kts 328°
2026-04-25 01:12 -19.68955 -50.23565 2242 ft 123 kts 330°
2026-04-25 01:12 -19.68190 -50.24012 2449 ft 127 kts 331°
2026-04-25 01:12 -19.67400 -50.24466 2664 ft 131 kts 332°
2026-04-25 01:13 -19.66594 -50.24918 2869 ft 134 kts 331°
2026-04-25 01:13 -19.65800 -50.25376 3069 ft 137 kts 332°
2026-04-25 01:13 -19.64946 -50.25847 3269 ft 138 kts 332°
2026-04-25 01:13 -19.64093 -50.26329 3476 ft 140 kts 331°
2026-04-25 01:14 -19.63231 -50.26817 3676 ft 139 kts 332°
2026-04-25 01:14 -19.62382 -50.27290 3878 ft 137 kts 331°
2026-04-25 01:14 -19.61538 -50.27774 4080 ft 138 kts 332°
2026-04-25 01:14 -19.60679 -50.28256 4286 ft 141 kts 332°
2026-04-25 01:15 -19.59800 -50.28751 4487 ft 144 kts 332°
2026-04-25 01:15 -19.58916 -50.29250 4683 ft 143 kts 331°
2026-04-25 01:15 -19.58047 -50.29742 4882 ft 143 kts 331°
2026-04-25 01:15 -19.57168 -50.30236 5086 ft 144 kts 332°
2026-04-25 01:16 -19.56278 -50.30737 5289 ft 146 kts 331°
2026-04-25 01:16 -19.55382 -50.31243 5489 ft 146 kts 331°
2026-04-25 01:16 -19.54488 -50.31745 5687 ft 145 kts 332°
2026-04-25 01:16 -19.53602 -50.32244 5883 ft 143 kts 331°